Regional Weather Roundup
Issued by NWS

Home | Current Version | Previous Version | Text Only | Print | Product List | Glossary On
Versions: 1 2 3 4 5 6 7 8 9 10 11 12 13 14 15 16 17 18 19 20 21 22 23 24 25 26 27 28 29 30 31 32 33 34 35 36 37 38 39 40 41 42 43 44 45 46 47 48 49 50
000
ASUS43 KTOP 021659
RWRKS

WEATHER ROUNDUP FOR KANSAS
NATIONAL WEATHER SERVICE GOODLAND KS
1200 PM CDT THU JUL 02 2015

NOTE:  "FAIR" INDICATES FEW OR NO CLOUDS BELOW 12,000 FEET WITH NO
SIGNIFICANT WEATHER AND/OR OBSTRUCTIONS TO VISIBILITY.

KSZ001>006-013>018-027>032-041>047-021800-
NORTHWEST KANSAS

CITY           SKY/WX    TMP DP  RH WIND       PRES   REMARKS
GOODLAND       PTSUNNY   68  59  73 W10       30.11R
HAYS           PTSUNNY   73  63  68 CALM      29.98S
HILL CITY      LGT RAIN  78  65  63 S3        29.98F
RUSSELL        CLOUDY    72  67  84 SW10      29.94F
$$

KSZ061>065-074>080-084>089-021800-
SOUTHWEST KANSAS

CITY           SKY/WX    TMP DP  RH WIND       PRES   REMARKS
DODGE CITY     CLOUDY    79  69  71 NE14      30.01R
ELKHART          N/A     84  60  44 N9          N/A
GARDEN CITY    PTSUNNY   78  67  68 NE20G28   30.03R
GREAT BEND     CLOUDY    70  63  78 SE8       29.98F
LIBERAL        PTSUNNY   82  63  51 N14       30.04R
$$

KSZ066>073-081>083-090>101-021800-
SOUTHEAST KANSAS

CITY           SKY/WX    TMP DP  RH WIND       PRES   REMARKS
CHANUTE        CLOUDY    79  70  74 N8        29.91R
COFFEYVILLE    PTSUNNY   86  73  65 N10       29.87R
HUTCHINSON     LGT RAIN  76  70  82 N6        29.98R
MEDICINE LODGE   N/A     85  72  65 NE14      29.93R
NEWTON         CLOUDY    75  66  73 N10G16    30.00R
PARSONS        PTSUNNY   84  74  71 N9        29.90R
WICHITA INTL   CLOUDY    79  71  76 NE10      29.95R
WICHITA JABRA  CLOUDY    77  70  79 NE8       29.95R
WINFIELD       PTSUNNY   84  70  62 NE7       29.92R
$$

KSZ007>012-019>026-033>040-048>060-102>105-021800-
NORTHEAST KANSAS

CITY           SKY/WX    TMP DP  RH WIND       PRES   REMARKS
CONCORDIA      LGT RAIN  72  70  93 S5        29.96R FOG
EMPORIA        CLOUDY    76  69  79 NE6       29.95R
LAWRENCE       CLOUDY    73  68  84 E7        29.93S
MANHATTAN      LGT RAIN  75  70  84 E10       29.87F
OLATHE IND     CLOUDY    73  69  87 E7        29.94R FOG
OLATHE EXE     CLOUDY    71  68  90 E8        29.93R
SALINA         LGT RAIN  76  71  85 E6        29.93F
TOPEKA BILLARD CLOUDY    75  69  81 E6        29.95R
TOPEKA FORBES  CLOUDY    76  68  76 E5        29.95R
$$



USA.gov is the U.S. government's official web portal to all federal, state and local government web resources and services.